Location: Eaton Estates
(41.3089°N, 82.0057°W)
Time: 11:37:53
(UTC+00:00)

GPS 2-04 Rocket1 - Pass Details

Date: 17 June 2021
Orbit: 415 x 539 km, 35.6° (Epoch: 30 July)

Event Time Altitude Azimuth Distance (km) Brightness Sun altitude
Exits shadow 08:22:29 24° 208° (SSW) 1,062 3.7 -13.8°
Maximum altitude 08:23:50 31° 171° (S) 893 3.5 -13.7°
Drops below altitude 10° 08:27:12 10° 108° (ESE) 1,650 5.6 -13.3°
Sets 08:29:30 0° 98° (E) 2,503 6.7 -13.0°
